Location: Stendal
(52.5994°N, 11.8400°E)
Time: 17:01:52
(UTC+01:00)

Envisat - Pass Details

Date: 13 October 2022
Orbit: 763 x 765 km, 98.2° (Epoch: 30 November)

Event Time Altitude Azimuth Distance (km) Brightness Sun altitude
Rises 06:22:02 0° 11° (NNE) 3,247 6.4 -11.8°
Reaches altitude 10° 06:24:24 10° 7° (N) 2,316 5.6 -11.4°
Maximum altitude 06:29:19 51° 293° (WNW) 959 3.2 -10.7°
Drops below altitude 10° 06:34:13 10° 218° (SW) 2,300 5.1 -9.9°
Sets 06:36:34 0° 213° (SSW) 3,221 5.9 -9.6°
